Нови Сад, метеограме

Нови Сад: време по сату
Недеља, 05 Јула
Време Падавине Температура Осећа се Притисак Влажност Ветар
17:00 0 мм +25.7° +26.8° 747.000 мм.ж.с 58% 3 м/с, С
18:00 0 мм +24.2° +25.4° 747.000 мм.ж.с 63% 2 м/с, СЗ
19:00 0 мм +22.7° +23.9° 747.000 мм.ж.с 68% 2 м/с, СЗ
20:00 0 мм +21.7° +22.8° 747.000 мм.ж.с 69% 2 м/с, СЗ
21:00 0 мм +20.7° +21.7° 747.000 мм.ж.с 70% 2 м/с, СЗ
22:00 0 мм +19.6° +20.5° 747.000 мм.ж.с 71% 1 м/с, С
23:00 0 мм +19.1° +20.1° 747.000 мм.ж.с 73% 1 м/с, СЗ
Понедељак, 06 Јула
Време Падавине Температура Осећа се Притисак Влажност Ветар
00:00 0 мм +18.6° +19.6° 747.000 мм.ж.с 75% 1 м/с, СЗ
01:00 0 мм +18.1° +19.1° 747.000 мм.ж.с 78% 1 м/с, СЗ
02:00 0 мм +17.7° +18.7° 747.000 мм.ж.с 80% 1 м/с, СЗ
03:00 0 мм +17.3° +18.3° 746.000 мм.ж.с 82% 1 м/с, СЗ
04:00 0 мм +16.9° +18° 746.000 мм.ж.с 84% 1 м/с, СЗ
05:00 0 мм +18.3° +19.5° 746.000 мм.ж.с 81% 1 м/с, СЗ
06:00 0 мм +19.7° +21° 746.000 мм.ж.с 78% 1 м/с, СЗ
07:00 0 мм +21.1° +22.4° 746.000 мм.ж.с 74% 1 м/с, СЗ
08:00 0 мм +22.6° +24° 746.000 мм.ж.с 70% 1 м/с, СЗ
09:00 0 мм +24.1° +25.4° 745.000 мм.ж.с 65% 2 м/с, СЗ
10:00 0 мм +25.6° +26.9° 745.000 мм.ж.с 61% 2 м/с, СЗ
11:00 0 мм +26.5° +27.6° 745.000 мм.ж.с 57% 1 м/с, СЗ
12:00 0 мм +27.4° +28.3° 744.000 мм.ж.с 53% 1 м/с, С
13:00 0 мм +28.2° +29° 744.000 мм.ж.с 49% 1 м/с, С
14:00 0 мм +28.4° +29.2° 743.000 мм.ж.с 49% 1 м/с, С
15:00 0 мм +28.6° +29.4° 743.000 мм.ж.с 48% 1 м/с, С
16:00 0 мм +28.8° +29.6° 743.000 мм.ж.с 48% 1 м/с, С
17:00 0.01 мм +27.2° +28.3° 743.000 мм.ж.с 55% 1 м/с, С
18:00 0.01 мм +25.6° +27° 743.000 мм.ж.с 62% 2 м/с, С
19:00 0.01 мм +24° +25.6° 743.000 мм.ж.с 69% 2 м/с, С
20:00 0.03 мм +23° +24.6° 743.000 мм.ж.с 73% 2 м/с, С
21:00 0.03 мм +22° +23.6° 743.000 мм.ж.с 76% 2 м/с, С
22:00 0.03 мм +21° +22.6° 743.000 мм.ж.с 80% 3 м/с, С
23:00 0.53 мм +20.2° +21.5° 744.000 мм.ж.с 77% 4 м/с, С
Уторак, 07 Јула
Време Падавине Температура Осећа се Притисак Влажност Ветар
00:00 0.53 мм +19.4° +20.4° 744.000 мм.ж.с 74% 6 м/с, С
01:00 0.53 мм +18.6° +19.3° 744.000 мм.ж.с 71% 7 м/с, С
02:00 0.17 мм +17.6° +18.2° 745.000 мм.ж.с 71% 7 м/с, СЗ
03:00 0.17 мм +16.6° +17.1° 746.000 мм.ж.с 71% 7 м/с, СЗ
04:00 0.17 мм +15.7° +16° 746.000 мм.ж.с 70% 7 м/с, СЗ
05:00 1.14 мм +14.5° +15° 747.000 мм.ж.с 77% 7 м/с, СЗ
06:00 1.14 мм +13.4° +14° 748.000 мм.ж.с 84% 7 м/с, СЗ
07:00 1.14 мм +12.2° +13° 749.000 мм.ж.с 91% 7 м/с, СЗ
08:00 1.23 мм +12.2° +12.9° 749.000 мм.ж.с 91% 6 м/с, СЗ
09:00 1.23 мм +12.1° +12.8° 749.000 мм.ж.с 91% 6 м/с, СЗ
10:00 1.23 мм +12.1° +12.8° 750.000 мм.ж.с 92% 6 м/с, СЗ
11:00 0.91 мм +12.3° +13.1° 750.000 мм.ж.с 92% 5 м/с, СЗ
12:00 0.91 мм +12.6° +13.4° 750.000 мм.ж.с 92% 4 м/с, СЗ
13:00 0.91 мм +12.9° +13.8° 750.000 мм.ж.с 92% 3 м/с, СЗ
14:00 0.45 мм +14.1° +15° 750.000 мм.ж.с 88% 3 м/с, З
15:00 0.45 мм +15.3° +16.3° 750.000 мм.ж.с 85% 2 м/с, З
16:00 0.45 мм +16.6° +17.5° 750.000 мм.ж.с 81% 2 м/с, З

Такође

Meteograms hourly weather Мапе времена Преглед времена
Meteograms hourly weather Мапе времена Преглед времена
 
Време у Србији:
О проjекту
© meteoprog.rs 2003-2020.
Meteoprog.ua - погода в Украине 0.0490
sitemap